User: anonymous   Login
Location: Lafig�re
(44.4503°N, 4.0357°E)
Time: 12:07:37
(UTC+00:00)
Language:

ISS - Orbit

View from above orbital plane
View from above orbital plane
View from above satellite
View from above satellite

Ground track
Ground track

The orbit data is extracted from the following two-line orbital elements,

1 25544U 98067A   20330.60786565  .00016717  00000-0  10270-3 0  9075
2 25544  51.6430 269.7538 0001936  72.3863 287.7498 15.49035713 17033
Epoch (UTC): 25 November 2020 14:35:19
Eccentricity: 0.0001936
inclination: 51.6430°
perigee height: 418 km
apogee height: 421 km
right ascension of ascending node: 269.7538°
argument of perigee: 72.3863°
revolutions per day: 15.49035713
mean anomaly at epoch: 287.7498°
orbit number at epoch: 1703

The dashed part of the orbit path shows where the satellite is in the earth's shadow,  

DLR